Time,TemperatureF,DewpointF,PressureIn,WindDirection,WindDirectionDegrees,WindSpeedMPH,WindSpeedGustMPH,Humidity,HourlyPrecipIn,Conditions,Clouds,dailyrainin,SoftwareType,DateUTC
2013-04-08 00:03:00,32.0,-99.9,-100.00,NE,52,9.0,-999.0,-999,-99.99,,,-99.99,,2013-04-08 05:03:00,
2013-04-08 00:12:00,32.0,-99.9,-100.00,NE,56,9.0,-999.0,-999,-99.99,,,-99.99,,2013-04-08 05:12:00,
2013-04-08 00:22:00,32.0,-99.9,-100.00,NE,56,9.0,-999.0,-999,-99.99,,,-99.99,,2013-04-08 05:22:00,
2013-04-08 00:32:00,32.0,-99.9,-100.00,NE,39,7.0,-999.0,-999,-99.99,,,-99.99,,2013-04-08 05:32:00,
2013-04-08 00:42:00,32.0,-99.9,-100.00,NNE,25,7.0,-999.0,-999,-99.99,,,-99.99,,2013-04-08 05:42:00,
2013-04-08 00:53:00,32.0,-99.9,-100.00,North,3,6.0,-999.0,-999,-99.99,,,-99.99,,2013-04-08 05:53:00,
2013-04-08 01:02:00,32.0,-99.9,-100.00,North,10,9.0,-999.0,-999,-99.99,,,-99.99,,2013-04-08 06:02:00,
2013-04-08 01:12:00,33.0,-99.9,-100.00,NNE,23,9.0,-999.0,-999,-99.99,,,-99.99,,2013-04-08 06:12:00,
2013-04-08 01:22:00,33.0,-99.9,-100.00,NNE,29,8.0,-999.0,-999,-99.99,,,-99.99,,2013-04-08 06:22:00,
2013-04-08 01:32:00,32.0,-99.9,-100.00,NNE,32,8.0,-999.0,-999,-99.99,,,-99.99,,2013-04-08 06:32:00,
2013-04-08 01:43:00,33.0,-99.9,-100.00,NNE,15,8.0,-999.0,-999,-99.99,,,-99.99,,2013-04-08 06:43:00,
2013-04-08 01:53:00,33.0,-99.9,-100.00,NNE,26,8.0,-999.0,-999,-99.99,,,-99.99,,2013-04-08 06:53:00,
2013-04-08 02:03:00,32.0,-99.9,-100.00,NNE,28,7.0,-999.0,-999,-99.99,,,-99.99,,2013-04-08 07:03:00,
2013-04-08 02:12:00,32.0,-99.9,-100.00,NE,37,11.0,-999.0,-999,-99.99,,,-99.99,,2013-04-08 07:12:00,
2013-04-08 02:22:00,32.0,-99.9,-100.00,NE,34,8.0,-999.0,-999,-99.99,,,-99.99,,2013-04-08 07:22:00,
2013-04-08 02:33:00,32.0,-99.9,-100.00,NE,34,8.0,-999.0,-999,-99.99,,,-99.99,,2013-04-08 07:33:00,
2013-04-08 02:42:00,32.0,-99.9,-100.00,North,11,10.0,-999.0,-999,-99.99,,,-99.99,,2013-04-08 07:42:00,
2013-04-08 02:53:00,31.0,-99.9,-100.00,WSW,258,7.0,-999.0,-999,-99.99,,,-99.99,,2013-04-08 07:53:00,
2013-04-08 03:02:00,31.0,-99.9,-100.00,North,2,9.0,-999.0,-999,-99.99,,,-99.99,,2013-04-08 08:02:00,
2013-04-08 03:12:00,31.0,-99.9,-100.00,North,2,9.0,-999.0,-999,-99.99,,,-99.99,,2013-04-08 08:12:00,
2013-04-08 03:22:00,31.0,-99.9,-100.00,North,10,9.0,-999.0,-999,-99.99,,,-99.99,,2013-04-08 08:22:00,
2013-04-08 03:33:00,31.0,-99.9,-100.00,North,10,9.0,-999.0,-999,-99.99,,,-99.99,,2013-04-08 08:33:00,
2013-04-08 03:43:00,31.0,-99.9,-100.00,WSW,257,7.0,-999.0,-999,-99.99,,,-99.99,,2013-04-08 08:43:00,
2013-04-08 03:52:00,31.0,-99.9,-100.00,North,1,9.0,-999.0,-999,-99.99,,,-99.99,,2013-04-08 08:52:00,
2013-04-08 04:03:00,31.0,-99.9,-100.00,North,2,9.0,-999.0,-999,-99.99,,,-99.99,,2013-04-08 09:03:00,
2013-04-08 04:12:00,31.0,-99.9,-100.00,North,5,10.0,-999.0,-999,-99.99,,,-99.99,,2013-04-08 09:12:00,
2013-04-08 04:23:00,31.0,-99.9,-100.00,North,3,11.0,-999.0,-999,-99.99,,,-99.99,,2013-04-08 09:23:00,
2013-04-08 04:34:00,31.0,-99.9,-100.00,North,4,11.0,-999.0,-999,-99.99,,,-99.99,,2013-04-08 09:34:00,
2013-04-08 04:43:00,31.0,-99.9,-100.00,SSE,162,13.0,-999.0,-999,-99.99,,,-99.99,,2013-04-08 09:43:00,
2013-04-08 04:53:00,31.0,-99.9,-100.00,NNW,345,13.0,-999.0,-999,-99.99,,,-99.99,,2013-04-08 09:53:00,
2013-04-08 05:03:00,31.0,-99.9,-100.00,North,2,14.0,-999.0,-999,-99.99,,,-99.99,,2013-04-08 10:03:00,
2013-04-08 05:13:00,31.0,-99.9,-100.00,North,9,17.0,-999.0,-999,-99.99,,,-99.99,,2013-04-08 10:13:00,
2013-04-08 05:23:00,31.0,-99.9,-100.00,North,5,17.0,-999.0,-999,-99.99,,,-99.99,,2013-04-08 10:23:00,
2013-04-08 05:33:00,31.0,-99.9,-100.00,North,6,15.0,-999.0,-999,-99.99,,,-99.99,,2013-04-08 10:33:00,
2013-04-08 05:43:00,31.0,-99.9,-100.00,North,9,13.0,-999.0,-999,-99.99,,,-99.99,,2013-04-08 10:43:00,
2013-04-08 05:53:00,31.0,-99.9,-100.00,North,3,12.0,-999.0,-999,-99.99,,,-99.99,,2013-04-08 10:53:00,
2013-04-08 06:03:00,31.0,-99.9,-100.00,North,3,13.0,-999.0,-999,-99.99,,,-99.99,,2013-04-08 11:03:00,
2013-04-08 06:12:00,31.0,-99.9,-100.00,North,5,14.0,-999.0,-999,-99.99,,,-99.99,,2013-04-08 11:12:00,
2013-04-08 06:23:00,31.0,-99.9,-100.00,North,2,11.0,-999.0,-999,-99.99,,,-99.99,,2013-04-08 11:23:00,
2013-04-08 06:33:00,31.0,-99.9,-100.00,NNW,345,13.0,-999.0,-999,-99.99,,,-99.99,,2013-04-08 11:33:00,
2013-04-08 06:43:00,31.0,-99.9,-100.00,North,1,14.0,-999.0,-999,-99.99,,,-99.99,,2013-04-08 11:43:00,
2013-04-08 06:53:00,31.0,-99.9,-100.00,North,5,15.0,-999.0,-999,-99.99,,,-99.99,,2013-04-08 11:53:00,
2013-04-08 07:04:00,31.0,-99.9,-100.00,WSW,258,16.0,-999.0,-999,-99.99,,,-99.99,,2013-04-08 12:04:00,
2013-04-08 07:12:00,31.0,-99.9,-100.00,North,3,15.0,-999.0,-999,-99.99,,,-99.99,,2013-04-08 12:12:00,
2013-04-08 07:23:00,31.0,-99.9,-100.00,North,5,16.0,-999.0,-999,-99.99,,,-99.99,,2013-04-08 12:23:00,
2013-04-08 07:34:00,31.0,-99.9,-100.00,North,9,11.0,-999.0,-999,-99.99,,,-99.99,,2013-04-08 12:34:00,
2013-04-08 07:43:00,31.0,-99.9,-100.00,North,0,14.0,-999.0,-999,-99.99,,,-99.99,,2013-04-08 12:43:00,
2013-04-08 07:53:00,31.0,-99.9,-100.00,North,3,11.0,-999.0,-999,-99.99,,,-99.99,,2013-04-08 12:53:00,
2013-04-08 08:03:00,31.0,-99.9,-100.00,North,2,13.0,-999.0,-999,-99.99,,,-99.99,,2013-04-08 13:03:00,
2013-04-08 08:12:00,31.0,-99.9,-100.00,NNW,345,13.0,-999.0,-999,-99.99,,,-99.99,,2013-04-08 13:12:00,
2013-04-08 08:23:00,31.0,-99.9,-100.00,North,1,15.0,-999.0,-999,-99.99,,,-99.99,,2013-04-08 13:23:00,
2013-04-08 08:33:00,31.0,-99.9,-100.00,East,86,13.0,-999.0,-999,-99.99,,,-99.99,,2013-04-08 13:33:00,
2013-04-08 08:43:00,31.0,-99.9,-100.00,SSE,147,14.0,-999.0,-999,-99.99,,,-99.99,,2013-04-08 13:43:00,
2013-04-08 08:53:00,31.0,-99.9,-100.00,North,6,15.0,-999.0,-999,-99.99,,,-99.99,,2013-04-08 13:53:00,
2013-04-08 09:03:00,31.0,-99.9,-100.00,NNE,12,17.0,-999.0,-999,-99.99,,,-99.99,,2013-04-08 14:03:00,
2013-04-08 09:12:00,31.0,-99.9,-100.00,North,7,17.0,-999.0,-999,-99.99,,,-99.99,,2013-04-08 14:12:00,
2013-04-08 09:22:00,31.0,-99.9,-100.00,North,4,13.0,-999.0,-999,-99.99,,,-99.99,,2013-04-08 14:22:00,
2013-04-08 09:33:00,31.0,-99.9,-100.00,North,6,15.0,-999.0,-999,-99.99,,,-99.99,,2013-04-08 14:33:00,
2013-04-08 09:43:00,31.0,-99.9,-100.00,North,6,15.0,-999.0,-999,-99.99,,,-99.99,,2013-04-08 14:43:00,
2013-04-08 09:53:00,31.0,-99.9,-100.00,North,8,16.0,-999.0,-999,-99.99,,,-99.99,,2013-04-08 14:53:00,
2013-04-08 10:03:00,31.0,-99.9,-100.00,North,8,16.0,-999.0,-999,-99.99,,,-99.99,,2013-04-08 15:03:00,
2013-04-08 10:12:00,31.0,-99.9,-100.00,NNE,16,20.0,-999.0,-999,-99.99,,,-99.99,,2013-04-08 15:12:00,
2013-04-08 10:22:00,31.0,-99.9,-100.00,North,7,21.0,-999.0,-999,-99.99,,,-99.99,,2013-04-08 15:22:00,
2013-04-08 10:35:00,31.0,-99.9,-100.00,North,5,17.0,-999.0,-999,-99.99,,,-99.99,,2013-04-08 15:35:00,
2013-04-08 10:43:00,31.0,-99.9,-100.00,NNE,12,22.0,-999.0,-999,-99.99,,,-99.99,,2013-04-08 15:43:00,
2013-04-08 10:53:00,31.0,-99.9,-100.00,North,6,20.0,-999.0,-999,-99.99,,,-99.99,,2013-04-08 15:53:00,
2013-04-08 11:04:00,31.0,-99.9,-100.00,NNE,12,19.0,-999.0,-999,-99.99,,,-99.99,,2013-04-08 16:04:00,
2013-04-08 11:13:00,31.0,-99.9,-100.00,North,3,17.0,-999.0,-999,-99.99,,,-99.99,,2013-04-08 16:13:00,
2013-04-08 11:23:00,31.0,-99.9,-100.00,North,9,21.0,-999.0,-999,-99.99,,,-99.99,,2013-04-08 16:23:00,
2013-04-08 11:33:00,31.0,-99.9,-100.00,NNE,13,23.0,-999.0,-999,-99.99,,,-99.99,,2013-04-08 16:33:00,
2013-04-08 11:42:00,31.0,-99.9,-100.00,NNE,13,23.0,-999.0,-999,-99.99,,,-99.99,,2013-04-08 16:42:00,
2013-04-08 11:54:00,31.0,-99.9,-100.00,North,3,19.0,-999.0,-999,-99.99,,,-99.99,,2013-04-08 16:54:00,
2013-04-08 12:03:00,31.0,-99.9,-100.00,NNE,12,22.0,-999.0,-999,-99.99,,,-99.99,,2013-04-08 17:03:00,
2013-04-08 12:12:00,31.0,-99.9,-100.00,North,4,19.0,-999.0,-999,-99.99,,,-99.99,,2013-04-08 17:12:00,
2013-04-08 12:23:00,31.0,-99.9,-100.00,North,4,21.0,-999.0,-999,-99.99,,,-99.99,,2013-04-08 17:23:00,
2013-04-08 12:33:00,31.0,-99.9,-100.00,East,96,17.0,-999.0,-999,-99.99,,,-99.99,,2013-04-08 17:33:00,
2013-04-08 12:45:00,31.0,-99.9,-100.00,East,89,22.0,-999.0,-999,-99.99,,,-99.99,,2013-04-08 17:45:00,
2013-04-08 12:53:00,31.0,-99.9,-100.00,North,3,22.0,-999.0,-999,-99.99,,,-99.99,,2013-04-08 17:53:00,
2013-04-08 13:02:00,31.0,-99.9,-100.00,North,3,22.0,-999.0,-999,-99.99,,,-99.99,,2013-04-08 18:02:00,
2013-04-08 13:12:00,31.0,-99.9,-100.00,East,89,23.0,-999.0,-999,-99.99,,,-99.99,,2013-04-08 18:12:00,
2013-04-08 13:23:00,31.0,-99.9,-100.00,East,89,23.0,-999.0,-999,-99.99,,,-99.99,,2013-04-08 18:23:00,
2013-04-08 13:32:00,31.0,-99.9,-100.00,South,173,20.0,-999.0,-999,-99.99,,,-99.99,,2013-04-08 18:32:00,
2013-04-08 13:43:00,31.0,-99.9,-100.00,South,169,25.0,-999.0,-999,-99.99,,,-99.99,,2013-04-08 18:43:00,
2013-04-08 13:53:00,31.0,-99.9,-100.00,North,3,20.0,-999.0,-999,-99.99,,,-99.99,,2013-04-08 18:53:00,
2013-04-08 14:03:00,31.0,-99.9,-100.00,North,7,22.0,-999.0,-999,-99.99,,,-99.99,,2013-04-08 19:03:00,
2013-04-08 14:13:00,31.0,-99.9,-100.00,East,87,27.0,-999.0,-999,-99.99,,,-99.99,,2013-04-08 19:13:00,
2013-04-08 14:23:00,31.0,-99.9,-100.00,East,87,27.0,-999.0,-999,-99.99,,,-99.99,,2013-04-08 19:23:00,
2013-04-08 14:34:00,31.0,-99.9,-100.00,North,8,24.0,-999.0,-999,-99.99,,,-99.99,,2013-04-08 19:34:00,
2013-04-08 14:43:00,30.0,-99.9,-100.00,NNW,345,26.0,-999.0,-999,-99.99,,,-99.99,,2013-04-08 19:43:00,
2013-04-08 14:53:00,30.0,-99.9,-100.00,NNW,345,26.0,-999.0,-999,-99.99,,,-99.99,,2013-04-08 19:53:00,
2013-04-08 15:02:00,29.0,-99.9,-100.00,NNW,344,26.0,-999.0,-999,-99.99,,,-99.99,,2013-04-08 20:02:00,
2013-04-08 15:12:00,29.0,-99.9,-100.00,East,87,26.0,-999.0,-999,-99.99,,,-99.99,,2013-04-08 20:12:00,
2013-04-08 15:23:00,28.0,-99.9,-100.00,NNW,330,26.0,-999.0,-999,-99.99,,,-99.99,,2013-04-08 20:23:00,
2013-04-08 15:33:00,28.0,-99.9,-100.00,North,5,32.0,-999.0,-999,-99.99,,,-99.99,,2013-04-08 20:33:00,
2013-04-08 15:43:00,27.0,-99.9,-100.00,West,259,30.0,-999.0,-999,-99.99,,,-99.99,,2013-04-08 20:43:00,
2013-04-08 15:53:00,27.0,-99.9,-100.00,NNW,345,29.0,-999.0,-999,-99.99,,,-99.99,,2013-04-08 20:53:00,
2013-04-08 16:02:00,27.0,-99.9,-100.00,South,172,30.0,-999.0,-999,-99.99,,,-99.99,,2013-04-08 21:02:00,
2013-04-08 16:12:00,27.0,-99.9,-100.00,WSW,255,35.0,-999.0,-999,-99.99,,,-99.99,,2013-04-08 21:12:00,
2013-04-08 16:22:00,27.0,-99.9,-100.00,West,260,23.0,-999.0,-999,-99.99,,,-99.99,,2013-04-08 21:22:00,
2013-04-08 16:33:00,27.0,-99.9,-100.00,NNW,336,24.0,-999.0,-999,-99.99,,,-99.99,,2013-04-08 21:33:00,
2013-04-08 16:44:00,27.0,-99.9,-100.00,NNW,336,30.0,-999.0,-999,-99.99,,,-99.99,,2013-04-08 21:44:00,
2013-04-08 16:53:00,27.0,-99.9,-100.00,NNW,345,29.0,-999.0,-999,-99.99,,,-99.99,,2013-04-08 21:53:00,
2013-04-08 17:03:00,27.0,-99.9,-100.00,NNW,345,29.0,-999.0,-999,-99.99,,,-99.99,,2013-04-08 22:03:00,
2013-04-08 17:14:00,27.0,-99.9,-100.00,NNW,345,30.0,-999.0,-999,-99.99,,,-99.99,,2013-04-08 22:14:00,
2013-04-08 17:23:00,27.0,-99.9,-100.00,South,171,28.0,-999.0,-999,-99.99,,,-99.99,,2013-04-08 22:23:00,
2013-04-08 17:44:00,27.0,-99.9,-100.00,North,1,29.0,-999.0,-999,-99.99,,,-99.99,,2013-04-08 22:44:00,
2013-04-08 17:52:00,27.0,26.0,-100.00,WSW,258,32.0,-999.0,97,-99.99,,,-99.99,,2013-04-08 22:52:00,
2013-04-08 18:02:00,27.0,26.0,-100.00,NNW,345,28.0,-999.0,97,-99.99,,,-99.99,,2013-04-08 23:02:00,
2013-04-08 18:12:00,27.0,26.0,-100.00,NE,45,30.0,-999.0,95,-99.99,,,-99.99,,2013-04-08 23:12:00,
2013-04-08 18:22:00,27.0,26.0,-100.00,NE,45,30.0,-999.0,95,-99.99,,,-99.99,,2013-04-08 23:22:00,
2013-04-08 18:32:00,27.0,25.0,-100.00,North,4,22.0,-999.0,95,-99.99,,,-99.99,,2013-04-08 23:32:00,
2013-04-08 18:43:00,27.0,25.0,-100.00,North,1,32.0,-999.0,94,-99.99,,,-99.99,,2013-04-08 23:43:00,
2013-04-08 18:52:00,27.0,25.0,-100.00,North,3,25.0,-999.0,93,-99.99,,,-99.99,,2013-04-08 23:52:00,
2013-04-08 19:02:00,26.0,24.0,-100.00,NNW,345,28.0,-999.0,92,-99.99,,,-99.99,,2013-04-09 00:02:00,
2013-04-08 19:12:00,26.0,24.0,-100.00,NNW,345,28.0,-999.0,92,-99.99,,,-99.99,,2013-04-09 00:12:00,
2013-04-08 19:22:00,26.0,24.0,-100.00,East,86,24.0,-999.0,94,-99.99,,,-99.99,,2013-04-09 00:22:00,
2013-04-08 19:32:00,26.0,23.0,-100.00,South,173,28.0,-999.0,91,-99.99,,,-99.99,,2013-04-09 00:32:00,
2013-04-08 19:42:00,26.0,23.0,-100.00,South,173,28.0,-999.0,91,-99.99,,,-99.99,,2013-04-09 00:42:00,
2013-04-08 19:52:00,25.0,23.0,-100.00,West,276,32.0,-999.0,91,-99.99,,,-99.99,,2013-04-09 00:52:00,
2013-04-08 20:02:00,25.0,23.0,-100.00,SSW,205,28.0,-999.0,91,-99.99,,,-99.99,,2013-04-09 01:02:00,
2013-04-08 20:12:00,25.0,23.0,-100.00,NNE,28,24.0,-999.0,91,-99.99,,,-99.99,,2013-04-09 01:12:00,
2013-04-08 20:22:00,25.0,23.0,-100.00,North,3,23.0,-999.0,92,-99.99,,,-99.99,,2013-04-09 01:22:00,
2013-04-08 20:33:00,24.0,22.0,-100.00,NNE,12,24.0,-999.0,92,-99.99,,,-99.99,,2013-04-09 01:33:00,
2013-04-08 20:42:00,24.0,22.0,-100.00,North,7,28.0,-999.0,90,-99.99,,,-99.99,,2013-04-09 01:42:00,
2013-04-08 20:52:00,24.0,21.0,-100.00,North,8,24.0,-999.0,89,-99.99,,,-99.99,,2013-04-09 01:52:00,
2013-04-08 21:02:00,24.0,21.0,-100.00,North,4,29.0,-999.0,87,-99.99,,,-99.99,,2013-04-09 02:02:00,
2013-04-08 21:13:00,24.0,20.0,-100.00,North,3,27.0,-999.0,87,-99.99,,,-99.99,,2013-04-09 02:13:00,
2013-04-08 21:22:00,24.0,20.0,-100.00,South,173,30.0,-999.0,85,-99.99,,,-99.99,,2013-04-09 02:22:00,
2013-04-08 21:32:00,24.0,19.0,-100.00,NNW,345,33.0,-999.0,84,-99.99,,,-99.99,,2013-04-09 02:32:00,
2013-04-08 21:43:00,23.0,20.0,-100.00,East,88,22.0,-999.0,86,-99.99,,,-99.99,,2013-04-09 02:43:00,
2013-04-08 21:52:00,23.0,19.0,-100.00,North,2,31.0,-999.0,84,-99.99,,,-99.99,,2013-04-09 02:52:00,
2013-04-08 22:02:00,23.0,19.0,-100.00,North,1,28.0,-999.0,85,-99.99,,,-99.99,,2013-04-09 03:02:00,
2013-04-08 22:12:00,23.0,19.0,-100.00,North,2,32.0,-999.0,87,-99.99,,,-99.99,,2013-04-09 03:12:00,
2013-04-08 22:21:00,22.0,19.0,-100.00,North,3,27.0,-999.0,88,-99.99,,,-99.99,,2013-04-09 03:21:00,
2013-04-08 22:33:00,22.0,20.0,-100.00,North,7,23.0,-999.0,90,-99.99,,,-99.99,,2013-04-09 03:33:00,
2013-04-08 22:43:00,22.0,20.0,-100.00,South,172,21.0,-999.0,92,-99.99,,,-99.99,,2013-04-09 03:43:00,
2013-04-08 22:52:00,22.0,20.0,-100.00,NNW,345,32.0,-999.0,92,-99.99,,,-99.99,,2013-04-09 03:52:00,
2013-04-08 23:03:00,22.0,20.0,-100.00,NNW,345,24.0,-999.0,92,-99.99,,,-99.99,,2013-04-09 04:03:00,
2013-04-08 23:13:00,21.0,19.0,-100.00,NNW,328,32.0,-999.0,91,-99.99,,,-99.99,,2013-04-09 04:13:00,
2013-04-08 23:23:00,21.0,18.0,-100.00,East,87,27.0,-999.0,91,-99.99,,,-99.99,,2013-04-09 04:23:00,
2013-04-08 23:32:00,21.0,18.0,-100.00,ENE,71,27.0,-999.0,91,-99.99,,,-99.99,,2013-04-09 04:32:00,
2013-04-08 23:42:00,20.0,18.0,-100.00,East,88,27.0,-999.0,90,-99.99,,,-99.99,,2013-04-09 04:42:00,
2013-04-08 23:52:00,20.0,18.0,-100.00,East,88,27.0,-999.0,90,-99.99,,,-99.99,,2013-04-09 04:52:00,